User: anonymous   Login
Location: Unspecified
(0.0000°N, 0.0000°E)
Time: 14:52:25
(UTC+00:00)
Language:

Oscar 10/S400 - Orbit

View from above orbital plane
View from above orbital plane
View from above satellite
View from above satellite

Ground track
Ground track

The orbit data is extracted from the following two-line orbital elements,

1 14129U 83058B   17350.05553569 -.00000023 +00000-0 +00000-0 0  9991
2 14129 027.1658 005.1669 6022240 354.0138 005.4018 02.05867716231573
Epoch (UTC): 16 December 2017 01:19:58
Eccentricity: 0.6022240
inclination: 27.1658°
perigee height: 4004 km
apogee height: 35443 km
right ascension of ascending node: 5.1669°
argument of perigee: 354.0138°
revolutions per day: 2.05867716
mean anomaly at epoch: 5.4018°
orbit number at epoch: 23157

The dashed part of the orbit path shows where the satellite is in the earth's shadow,  

DLR